Eagle, AK

11:15 AM AKST on November 17, 2017 (GMT -0900)
Eagle

Weather History for PAEG - November, 2011

Change the Weather History Date:

Tuesday, November 15, 2011

  Actual Average (PABN) Record (PABN)
Temperature  
Mean Temperature -16 °F -  
Max Temperature -7 °F 11 °F 39 °F (1996)
Min Temperature -27 °F 4 °F -14 °F (2006)
Degree Days  
Heating Degree Days 82    
Moisture  
Dew Point -20 °F    
Average Humidity 75    
Maximum Humidity 79    
Minimum Humidity 71    
Precipitation  
Precipitation 0.00 in - - ()
Sea Level Pressure  
Sea Level Pressure 30.16 in    
Wind  
Wind Speed 0 mph (North)    
Max Wind Speed 0 mph    
Max Gust Speed -    
Visibility 9 miles    
Events      
Averages and records for this station are not official NWS values.
T = Trace of Precipitation, MM = Missing Value Source: NWS Daily Summary

Daily Weather History Graph

Daily Weather History Graph

Search for Another Location

Airport or City:

Trip Planner

Search our weather history database for the weather conditions in past years. The results will help you decide how hot, cold, wet, or windy it might be!

Date:

Astronomy

Nov. 15, 2011 Rise Set
Actual Time 8:59 AM AKST 3:18 PM AKST
Civil Twilight 7:56 AM AKST 4:20 PM AKST
Nautical Twilight 6:54 AM AKST 5:23 PM AKST
Astronomical Twilight 5:56 AM AKST 6:20 PM AKST
Moon 7:30 PM AKST (11/15) 1:15 PM AKST (11/15)
Length of Visible Light 8h 24m
Length of Day
6h 19m
Waning Gibbous, 77% of the Moon is Illuminated
Nov 15
Waning Gibbous
Nov 18
Last Quarter
Nov 24
New
Dec 2
First Quarter
Dec 10
Full

Hourly Weather History & Observations

Time (AKST) Temp. Dew Point Humidity Pressure Visibility Wind Dir Wind Speed Gust Speed Precip Events Conditions
12:53 AM -13.0 °F -18.0 °F 78% 29.99 in 10.0 mi Calm Calm - N/A   Overcast
1:53 AM -11.0 °F -16.1 °F 78% 30.01 in 6.0 mi Calm Calm - N/A   Haze
4:53 AM -9.9 °F -15.0 °F 78% 30.05 in 10.0 mi Calm Calm - N/A   Overcast
5:34 AM -11.2 °F -16.6 °F 77% 29.96 in 6.0 mi Calm Calm - N/A   Haze
5:53 AM -11.0 °F -17.0 °F 75% 30.06 in 6.0 mi Calm Calm - 0.00 in   Haze
6:53 AM -11.0 °F -17.0 °F 75% 30.07 in 10.0 mi Calm Calm - N/A   Overcast
7:53 AM -11.9 °F -17.0 °F 78% 30.09 in 10.0 mi Calm Calm - N/A   Overcast
8:53 AM -11.9 °F -18.0 °F 74% 30.11 in 9.0 mi Calm Calm - N/A   Overcast
9:53 AM -11.9 °F -18.0 °F 74% 30.12 in 8.0 mi Calm Calm - N/A   Overcast
10:53 AM -9.9 °F -16.1 °F 74% 30.14 in 6.0 mi Calm Calm - N/A   Haze
11:13 AM -9.4 °F -14.8 °F 77% 30.05 in 7.0 mi Calm Calm - N/A   Overcast
11:30 AM -7.6 °F -14.8 °F 71% 30.05 in 10.0 mi Calm Calm - N/A   Overcast
11:53 AM -8.0 °F -15.0 °F 71% 30.15 in 10.0 mi Calm Calm - N/A   Overcast
12:53 PM -8.0 °F -15.0 °F 71% 30.17 in 4.0 mi Calm Calm - 0.00 in   Haze
1:53 PM -8.0 °F -15.0 °F 71% 30.18 in 9.0 mi Calm Calm - 0.00 in   Overcast
2:53 PM -9.0 °F -16.1 °F 71% 30.20 in 10.0 mi Calm Calm - N/A   Mostly Cloudy
3:53 PM -13.0 °F -18.9 °F 75% 30.21 in 10.0 mi Calm Calm - N/A   Partly Cloudy
4:53 PM -14.1 °F -18.9 °F 79% 30.23 in 10.0 mi Calm Calm - N/A   Overcast
5:53 PM -17.0 °F -22.0 °F 78% 30.25 in 10.0 mi Calm Calm - N/A   Overcast
6:53 PM -18.9 °F -24.0 °F 78% 30.27 in 10.0 mi Calm Calm - N/A   Scattered Clouds
7:53 PM -20.9 °F -26.0 °F 77% 30.29 in 10.0 mi Calm Calm - N/A   Partly Cloudy
8:53 PM -22.0 °F -27.9 °F 74% 30.30 in 10.0 mi Calm Calm - N/A   Clear
9:53 PM -25.1 °F -29.9 °F 78% 30.32 in 10.0 mi Calm Calm - N/A   Clear
10:53 PM -26.0 °F -32.1 °F 73% 30.33 in 10.0 mi Calm Calm - N/A   Clear
11:53 PM -27.0 °F -33.0 °F 73% 30.34 in 10.0 mi Calm Calm - N/A   Clear